User: anonymous   Login
Location: Unspecified
(0.0000°N, 0.0000°E)
Time: 00:07:49
(UTC+00:00)
Language:

GRIFEX - Orbit

View from above orbital plane
View from above orbital plane
View from above satellite
View from above satellite

Ground track
Ground track

The orbit data is extracted from the following two-line orbital elements,

1 40379U 15003D   17265.52818167  .00001359  00000-0  64350-4 0  9991
2 40379  99.1217 106.3395 0142014  48.7388 312.5970 15.13341022145606
Epoch (UTC): 22 September 2017 12:40:34
Eccentricity: 0.0142014
inclination: 99.1217°
perigee height: 428 km
apogee height: 624 km
right ascension of ascending node: 106.3395°
argument of perigee: 48.7388°
revolutions per day: 15.13341022
mean anomaly at epoch: 312.5970°
orbit number at epoch: 14560

The dashed part of the orbit path shows where the satellite is in the earth's shadow,  

DLR